CZ-2C R/B (43521 NORAD) Tracking and Keplerian Element Data

This shows tracking and keplerian element data for the satellite.

Feedback or suggestion? Click here.




ElementValue
Catalog43521
NameCZ-2C R/B
Epoch Orbit436
Epoch Day206.94640416
Epoch Year2018
RAAN125.7251
Inclination35.1551
Eccentricity0.0083159
Argument of Perigee132.5515
Mean Anonmoly228.2249
Mean Motion15.10383999
Decay Rate3.68E-06
L11 43521U 18054D 18206.94640416 .00000368 00000-0 22576-4 0 9997
L22 43521 35.1551 125.7251 0083159 132.5515 228.2249 15.10383999 4368

Live tracking and technical data element details for CZ-2C R/B (NORAD 43521). CZ-2C R/B can be tracked NOW for your location showing map with azimuth and elevation plus other details from your city location.

Track the satellite on the map from your city or location and see movement details for azimuth, elevation, latitude, longitude, range, height, and movement on the map or in text.







IsCatalogInMostPopularTable: catalog: 43521, numindb: 45
Update: records affected: 1



GetName: 43521 CZ-2C R/B

Hit Count: updated at: Thu, 15 Nov 2018 04:17:05 GMT